DW5479 Weather Reports


Display with metric or nautical units.
time (UTC)temp
F
wind
direction
speed
MPH
gust
MPH
rain 1hr
in
rain 24hr
in
rain mn
in
humidity
%
barometer
mb
20260904103014 75 150 0.0 0.0 0.00 0.00 0.00 88 1011.0
20260904101535 75 148 0.0 0.0 0.00 0.00 0.00 88 1011.0
20260904100049 75 174 0.0 0.0 0.00 0.00 0.00 88 1010.9
20260904094517 75 183 0.0 0.0 0.00 0.00 0.00 87 1010.9
20260904093048 75 159 0.0 0.0 0.00 0.00 0.00 87 1010.7
20260904091600 75 153 0.0 0.0 0.00 0.00 0.00 87 1010.6
20260904090033 75 146 0.0 0.0 0.00 0.00 0.00 87 1010.7
20260904084600 75 156 0.0 0.0 0.00 0.00 0.00 87 1010.6
20260904083017 76 140 0.0 0.0 0.00 0.00 0.00 86 1010.6
20260904081535 76 134 0.0 0.0 0.00 0.00 0.00 86 1010.8
20260904080113 77 136 0.0 0.0 0.00 0.00 0.00 85 1010.8
20260904074506 77 127 0.0 0.0 0.00 0.00 0.00 84 1010.9
20260904073024 78 129 0.0 1.0 0.00 0.00 0.00 84 1011.1
20260904071554 79 140 0.0 3.0 0.00 0.00 0.00 83 1011.1
20260904070027 79 153 1.0 4.0 0.00 0.00 0.00 83 1011.2
20260904064540 80 142 2.0 7.0 0.00 0.00 0.00 83 1011.2
20260904063113 80 153 3.0 7.0 0.00 0.00 0.00 82 1011.2
20260904061508 80 150 3.0 8.0 0.00 0.00 0.00 82 1011.4
20260904060028 80 142 4.0 7.0 0.00 0.00 0.00 81 1011.5
20260904054547 81 168 3.0 9.0 0.00 0.00 0.00 81 1011.4
20260904053125 81 148 4.0 9.0 0.00 0.00 0.00 81 1011.2
20260904051514 81 148 6.0 11.0 0.00 0.00 0.00 81 1011.1
20260904050041 81 130 3.0 8.0 0.00 0.00 0.00 80 1011.0
20260904044513 81 146 4.0 9.0 0.00 0.00 0.00 79 1011.0
20260904043051 81 148 4.0 11.0 0.00 0.00 0.00 78 1010.9
20260904041603 82 120 5.0 9.0 0.00 0.00 0.00 78 1011.0
20260904040015 82 152 4.0 9.0 0.00 0.00 0.00 77 1010.9
20260904034532 82 157 6.0 10.0 0.00 0.00 0.00 75 1010.9
20260904033048 83 141 6.0 15.0 0.00 0.00 0.00 74 1010.6
20260904031603 84 165 8.0 15.0 0.00 0.00 0.00 71 1010.4
20260904030018 84 158 8.0 16.0 0.00 0.00 0.00 68 1010.3
20260904024533 85 144 8.0 18.0 0.00 0.00 0.00 65 1009.9
20260904023053 85 139 8.0 15.0 0.00 0.00 0.00 65 1009.7
20260904021528 85 189 6.0 13.0 0.00 0.00 0.00 64 1009.4
20260904020056 84 170 5.0 9.0 0.00 0.00 0.00 66 1009.2
20260904014608 85 148 2.0 7.0 0.00 0.00 0.00 65 1008.9
20260904013015 85 144 4.0 9.0 0.00 0.00 0.00 63 1008.8
20260904011537 85 148 4.0 9.0 0.00 0.00 0.00 63 1008.8
20260904010052 84 154 3.0 10.0 0.00 0.00 0.00 65 1008.6
20260904004503 83 167 5.0 13.0 0.00 0.00 0.00 68 1008.4
20260904003019 85 155 4.0 19.0 0.00 0.00 0.00 65 1008.4
20260904001536 87 169 8.0 17.0 0.00 0.00 0.00 60 1008.2
20260904000051 90 158 9.0 18.0 0.00 0.00 0.00 54 1007.8
20260903234513 97 140 6.0 12.0 0.00 0.00 0.00 44 1007.5
20260903233040 100 124 2.0 11.0 0.00 0.00 0.00 35 1007.2
20260903231603 101 150 5.0 11.0 0.00 0.00 0.00 35 1007.0
20260903230012 100 132 2.0 9.0 0.00 0.00 0.00 35 1006.9
20260903224539 100 148 3.0 10.0 0.00 0.00 0.00 35 1006.9
20260903223054 99 160 5.0 12.0 0.00 0.00 0.00 35 1006.9
20260903221505 101 148 3.0 9.0 0.00 0.00 0.00 35 1007.1
20260903220033 101 146 3.0 9.0 0.00 0.00 0.00 34 1007.2
20260903214544 101 148 4.0 9.0 0.00 0.00 0.00 35 1007.2
20260903213108 100 158 3.0 10.0 0.00 0.00 0.00 36 1007.5
20260903211533 99 169 1.0 7.0 0.00 0.00 0.00 37 1007.7
20260903210127 101 137 5.0 13.0 0.00 0.00 0.00 36 1007.9
20260903204506 101 169 2.0 6.0 0.00 0.00 0.00 35 1008.1
20260903203023 101 152 3.0 9.0 0.00 0.00 0.00 36 1008.3
20260903201541 100 153 5.0 10.0 0.00 0.00 0.00 37 1008.5
20260903200114 100 158 2.0 9.0 0.00 0.00 0.00 38 1008.6
20260903194514 100 143 4.0 11.0 0.00 0.00 0.00 38 1008.8
20260903193029 99 125 2.0 10.0 0.00 0.00 0.00 40 1008.9
20260903191527 99 148 2.0 9.0 0.00 0.00 0.00 41 1009.2
20260903190036 98 170 3.0 8.0 0.00 0.00 0.00 42 1009.5
20260903184537 98 139 5.0 9.0 0.00 0.00 0.00 44 1009.8
20260903183057 97 144 3.0 10.0 0.00 0.00 0.00 47 1010.0
20260903181507 96 140 7.0 12.0 0.00 0.00 0.00 44 1010.3
20260903180026 96 158 4.0 9.0 0.00 0.00 0.00 47 1010.5
20260903174544 95 158 3.0 10.0 0.00 0.00 0.00 48 1010.8
20260903173100 95 146 3.0 11.0 0.00 0.00 0.00 51 1011.0
20260903171515 93 139 4.0 9.0 0.00 0.00 0.00 51 1011.4
20260903170042 92 155 6.0 12.0 0.00 0.00 0.00 55 1011.6
20260903164550 91 155 6.0 11.0 0.00 0.00 0.00 57 1011.7
20260903163008 90 122 5.0 10.0 0.00 0.00 0.00 60 1011.8
20260903161532 89 155 4.0 9.0 0.00 0.00 0.00 61 1011.9
20260903160002 89 153 5.0 11.0 0.00 0.00 0.00 63 1011.9
20260903154520 88 162 4.0 10.0 0.00 0.00 0.00 65 1011.8
20260903153037 87 152 5.0 10.0 0.00 0.00 0.00 67 1011.8
20260903151607 86 179 3.0 9.0 0.00 0.00 0.00 70 1011.9
20260903150012 85 151 5.0 11.0 0.00 0.00 0.00 72 1011.9
20260903144529 84 156 3.0 9.0 0.00 0.00 0.00 76 1011.8
20260903143048 83 164 5.0 10.0 0.00 0.00 0.00 77 1012.0
20260903141602 83 142 3.0 9.0 0.00 0.00 0.00 80 1012.0
20260903140035 82 128 3.0 7.0 0.00 0.00 0.00 82 1012.1
20260903134602 81 157 3.0 7.0 0.00 0.00 0.00 82 1012.1
20260903133029 81 173 4.0 8.0 0.00 0.00 0.00 82 1012.2
20260903131546 81 157 5.0 8.0 0.00 0.00 0.00 83 1012.1
20260903130002 80 166 3.0 8.0 0.00 0.00 0.00 84 1012.0
20260903124520 79 165 3.0 7.0 0.00 0.00 0.00 84 1012.0
20260903123039 79 166 2.0 6.0 0.00 0.00 0.00 84 1011.8
20260903121556 79 165 3.0 9.0 0.00 0.00 0.00 84 1011.8
20260903120011 80 175 2.0 10.0 0.00 0.00 0.00 84 1011.7
20260903114548 80 149 4.0 9.0 0.00 0.00 0.00 84 1011.7
20260903113025 80 130 4.0 10.0 0.00 0.00 0.00 84 1011.6
20260903111557 80 165 4.0 14.0 0.00 0.00 0.00 84 1011.5
20260903110023 80 154 3.0 8.0 0.00 0.00 0.00 84 1011.4
20260903104544 80 155 3.0 10.0 0.00 0.00 0.00 84 1011.4